Theta_e
332 332 334 334 335 336 336 337 337 338 338 337 337 336 336 336 336 336 336 336 335 334 334 334 333 334 335 335 335 336 336 336 336 336 337 337 337 336 336 336 336 335 335 335 335 335 334 334 333 333 334 333 333 334 334 333 332 332 331 331 330 330 331 331 331 330 331 331 331 330 331 331 331 331 331 330 329 329 328 328 328 328 327 326 326
331 333 334 334 335 335 336 336 336 336 336 336 336 335 335 335 335 336 334 334 335 335 336 334 333 335 335 335 335 336 336 336 336 336 336 336 337 336 336 336 335 335 335 335 335 335 334 334 333 333 334 334 333 333 334 333 332 331 331 331 330 330 331 331 331 331 330 330 330 330 330 330 330 330 330 330 329 329 329 329 329 328 327 326 325
333 333 334 334 334 335 335 335 335 335 334 334 335 335 335 335 335 335 334 334 336 334 335 336 335 335 335 335 336 337 337 337 336 336 336 336 336 336 335 335 335 335 334 335 334 335 334 333 333 334 334 334 333 333 333 333 332 331 331 331 330 330 331 331 331 331 330 330 330 330 330 329 330 329 329 329 329 329 329 329 329 328 328 326 325
333 333 334 334 334 334 335 335 334 334 335 334 335 335 334 334 335 335 335 335 336 335 335 336 336 336 336 335 336 337 337 337 337 336 337 336 335 335 335 335 335 335 334 334 334 334 334 333 333 334 334 334 333 332 332 332 332 331 331 331 330 330 330 331 331 330 329 329 328 329 329 329 330 329 328 328 328 328 328 328 328 328 328 327 325
335 333 333 334 335 335 335 335 334 333 334 333 333 333 334 334 335 335 335 335 335 335 334 335 336 335 336 336 337 336 336 337 337 336 336 336 334 334 335 335 335 335 334 334 334 334 333 333 333 332 333 334 333 333 332 332 333 332 331 331 330 330 330 331 330 330 329 328 327 328 328 329 330 329 328 328 328 327 327 327 328 328 328 328 327
335 333 334 335 336 336 335 335 334 333 333 332 332 332 333 334 334 334 334 334 333 333 333 335 335 336 335 336 337 336 336 336 336 335 335 334 334 334 334 335 335 335 335 334 334 334 334 333 333 332 332 333 333 332 332 332 333 332 331 331 331 330 331 330 330 330 329 328 327 327 328 329 328 328 329 328 328 328 327 328 328 328 328 328 328
335 336 335 335 335 336 335 334 333 332 331 331 330 331 332 333 334 334 334 333 333 333 333 333 334 335 335 335 336 336 336 336 335 335 334 333 333 334 334 334 335 335 335 334 334 334 334 333 333 331 332 333 332 332 332 333 333 332 331 331 331 330 331 331 330 330 329 328 327 327 328 328 327 327 328 328 328 328 328 328 328 328 328 328 328
336 336 335 334 334 335 334 333 332 331 331 331 330 331 331 332 332 332 333 334 333 333 333 333 334 335 335 335 336 336 336 335 335 335 335 334 334 334 334 333 334 334 334 334 334 334 334 334 333 332 332 333 332 333 333 333 333 332 332 332 331 331 331 331 330 331 330 329 328 329 329 328 327 327 327 327 328 329 329 328 327 328 328 327 327
334 335 335 333 333 333 332 331 331 331 331 331 332 332 332 332 333 332 333 334 333 334 334 333 334 334 335 335 336 336 336 335 334 334 334 335 334 334 334 333 333 334 334 334 334 333 333 333 332 333 333 334 334 334 334 334 333 332 332 331 332 332 331 331 331 330 330 330 329 330 329 328 327 327 327 327 327 328 329 328 327 327 327 327 327
331 331 331 330 329 329 329 329 330 330 330 331 333 333 333 333 334 333 333 333 334 334 333 333 333 334 335 335 336 336 335 335 334 334 334 334 334 334 333 333 333 333 333 333 333 333 333 333 333 334 334 334 335 334 334 334 333 333 333 332 332 332 331 331 331 330 331 330 330 330 329 327 327 326 327 327 326 327 328 328 327 326 327 327 326
330 329 329 328 328 328 328 328 328 329 329 330 331 332 332 332 333 333 333 333 333 333 333 333 333 334 335 335 335 335 335 335 334 334 333 334 334 333 333 333 333 333 333 332 332 332 333 333 334 334 334 335 335 334 334 334 334 334 333 332 332 332 331 331 331 331 331 330 330 330 329 328 328 326 326 327 326 326 326 327 327 326 326 326 326
328 329 329 329 328 328 328 327 328 329 329 329 330 330 332 332 332 333 333 333 333 333 333 334 334 335 335 335 335 335 335 335 334 333 333 333 334 333 333 333 333 332 332 332 332 333 333 333 334 334 335 335 335 334 334 334 334 335 334 332 332 332 332 332 331 331 331 330 330 331 330 329 328 327 327 326 326 326 326 326 326 326 326 326 326
327 328 328 329 328 328 327 326 328 328 328 328 329 329 330 332 332 333 333 333 333 333 332 332 334 335 335 335 334 333 333 334 334 334 333 333 334 334 333 333 333 332 332 332 332 333 333 333 334 334 334 335 335 334 334 334 334 334 334 333 332 332 332 332 332 332 331 330 330 330 330 329 328 327 327 326 326 326 325 325 325 325 325 325 326
327 327 327 328 328 327 326 325 326 326 327 327 328 328 329 330 330 331 332 333 333 333 333 332 333 334 335 334 334 333 330 331 333 333 333 334 333 333 332 332 332 332 332 332 332 332 333 333 333 334 334 335 335 334 333 333 333 333 333 333 333 332 332 332 331 332 331 330 330 330 330 329 328 327 327 326 326 326 325 325 324 324 324 325 325
325 325 325 326 327 327 325 325 325 325 326 326 327 327 328 329 329 329 331 332 332 332 332 333 333 334 334 334 335 333 330 329 331 333 333 333 333 332 332 332 332 332 332 332 332 332 333 333 334 334 334 334 334 334 333 334 333 333 333 333 332 332 331 332 332 332 331 331 331 330 330 329 328 328 327 326 326 325 325 325 325 325 325 324 324
322 321 322 323 325 325 326 326 325 326 326 326 326 326 328 329 329 331 332 332 332 332 332 333 333 334 334 335 334 334 332 329 331 334 334 333 332 331 331 332 332 332 332 332 332 333 333 333 333 333 333 332 333 333 333 333 333 333 332 332 332 332 332 331 331 332 332 331 331 330 330 329 329 329 328 327 326 325 325 326 326 325 325 325 324
319 319 319 320 321 322 323 324 324 325 326 326 326 327 327 328 329 331 332 332 332 332 332 332 333 334 334 334 335 334 333 332 332 334 333 332 332 331 331 332 332 331 332 332 332 333 333 332 333 332 332 331 331 332 332 333 333 332 332 332 332 332 332 331 330 330 331 331 330 330 330 329 329 329 329 328 327 326 325 326 325 324 324 325 324
318 317 317 317 318 318 319 320 321 322 323 325 326 326 327 327 328 329 330 331 331 331 331 331 332 334 334 334 334 334 334 334 333 333 333 332 332 331 331 331 332 331 331 332 332 332 332 332 332 331 331 330 330 331 331 332 332 332 332 332 332 333 332 331 331 330 330 330 330 330 330 329 329 329 328 328 327 326 326 325 325 324 323 324 323
316 315 315 316 315 316 316 318 318 319 320 321 322 323 324 325 326 327 327 328 329 330 330 329 330 333 333 333 333 333 333 333 333 333 333 332 331 330 331 331 332 331 331 332 331 331 332 332 332 331 330 329 329 330 331 332 332 333 333 332 333 332 332 331 331 331 330 330 330 331 330 330 329 329 328 328 328 327 326 326 325 324 323 323 322
315 314 313 314 314 314 314 315 316 317 317 318 318 319 320 321 323 325 326 326 327 329 329 328 329 331 332 332 332 332 333 334 333 332 332 332 330 330 330 331 331 330 331 331 331 331 331 331 330 330 330 329 329 329 331 332 332 332 332 332 332 333 332 332 332 331 331 331 330 331 330 330 330 329 329 329 328 327 327 326 324 323 323 323 322
313 313 312 312 313 313 313 313 314 314 315 315 315 316 316 318 320 322 324 325 326 327 327 328 329 330 331 332 333 333 334 333 333 332 332 332 330 330 331 331 331 330 330 331 330 330 330 330 329 330 330 329 328 329 330 331 332 331 331 332 332 333 332 332 332 331 330 331 331 330 329 329 330 330 329 328 328 328 327 325 324 323 323 322 322
311 311 311 311 312 312 312 312 312 313 313 313 313 314 314 315 317 319 321 323 325 325 326 328 330 330 329 331 333 334 333 333 331 331 332 331 330 330 331 331 330 330 330 330 330 330 330 329 329 329 329 329 328 328 329 330 330 330 330 331 332 332 332 332 331 330 330 331 331 330 329 329 329 330 330 328 328 328 327 325 323 323 323 322 322
309 309 310 310 310 311 311 311 311 311 312 312 312 312 313 313 315 318 320 322 324 325 326 327 329 330 330 330 331 332 332 333 331 331 331 331 330 330 330 330 330 329 329 329 329 329 329 329 329 329 329 328 328 328 328 328 328 328 330 330 331 331 331 331 331 330 329 331 331 330 329 329 328 329 328 328 328 328 327 325 323 323 323 322 322
308 308 308 308 308 309 310 310 310 310 310 310 311 311 311 312 313 316 319 321 322 324 325 326 327 329 330 329 329 330 332 333 331 331 331 330 330 330 329 329 330 329 329 329 329 328 329 329 329 329 329 328 328 328 327 327 327 328 329 329 330 330 330 331 330 329 329 331 331 330 329 328 328 328 327 326 327 327 327 326 325 324 323 322 322
307 307 306 306 306 306 307 308 309 309 309 309 309 309 310 310 311 312 315 319 321 323 324 325 326 328 329 329 328 328 330 331 329 330 330 329 329 330 329 329 330 329 329 329 329 329 329 328 327 327 328 328 327 327 327 326 327 328 328 328 329 329 329 330 330 329 330 330 330 329 329 328 328 328 326 325 325 325 326 326 326 326 325 324 323
306 305 305 305 305 305 305 306 307 307 307 307 308 308 308 308 309 309 311 315 318 321 323 324 325 326 328 330 329 327 328 329 328 328 329 328 328 328 328 329 329 329 329 329 329 328 328 327 326 327 327 328 327 326 326 326 326 327 326 327 327 327 328 328 329 329 329 330 330 329 328 328 328 326 325 325 324 324 324 324 323 325 325 324 322
305 304 304 304 304 304 304 305 305 305 306 306 306 307 307 307 307 308 309 311 314 318 321 323 324 325 326 327 328 327 328 329 329 328 327 328 328 328 327 328 329 329 329 329 328 328 328 327 326 326 327 327 326 325 325 324 324 324 324 325 326 326 326 327 327 327 329 330 330 329 327 327 327 326 325 323 321 321 322 321 321 322 322 321 319
304 303 304 303 303 304 304 304 304 304 304 305 305 306 306 306 306 307 308 310 312 315 319 321 322 324 325 325 326 327 327 328 328 327 327 328 329 328 327 326 327 328 329 328 328 327 326 326 326 326 325 326 325 325 324 322 322 322 323 323 324 324 325 326 326 327 328 329 329 328 326 326 325 325 323 321 319 319 319 319 319 319 319 318 317
303 303 303 303 303 303 303 303 303 303 303 304 304 305 305 305 305 306 307 308 310 312 316 319 321 322 325 325 325 326 326 327 327 327 327 328 328 327 326 326 325 325 327 327 327 325 324 323 325 325 325 324 324 324 323 321 320 322 323 323 323 323 324 325 326 327 327 328 328 326 325 324 323 322 320 319 319 319 318 318 318 317 317 317 316
302 302 302 302 302 302 302 302 302 302 303 303 303 303 304 304 305 305 306 307 308 310 312 315 317 320 323 325 325 326 326 326 326 326 327 327 326 326 326 326 325 323 325 326 325 322 321 322 324 324 324 324 322 322 321 320 320 321 321 322 322 323 324 325 325 327 327 327 326 324 323 322 321 319 319 319 319 319 318 318 318 317 317 316 315
301 301 301 301 301 301 301 301 301 302 302 302 302 303 303 304 304 305 306 306 308 309 309 311 314 317 320 323 325 326 326 325 325 326 327 326 325 326 325 326 326 323 323 326 324 321 320 321 322 324 324 323 322 322 321 320 320 320 319 320 320 321 323 324 325 326 325 324 323 322 320 320 319 318 319 319 319 319 319 319 319 319 318 318 318
300 300 300 300 300 301 300 301 301 301 301 301 302 302 303 303 304 305 305 307 307 308 308 310 312 314 318 321 324 325 326 326 325 325 326 325 325 325 324 325 326 323 322 325 324 321 320 320 322 323 323 322 322 322 321 320 319 319 319 319 319 321 323 324 325 324 322 321 321 320 319 319 319 319 319 319 319 319 319 319 319 318 318 318 318
300 300 300 300 300 300 300 300 300 300 300 301 301 302 302 303 303 304 305 306 307 307 307 309 310 312 315 318 322 324 326 326 325 324 326 325 324 324 323 324 324 321 320 323 323 321 320 320 321 322 322 321 321 321 321 319 317 317 318 318 320 322 323 324 324 323 321 320 320 319 319 319 319 319 318 318 319 319 318 318 318 318 318 318 318
299 299 299 300 300 300 300 300 300 300 300 301 301 302 302 303 303 304 305 305 306 306 306 307 308 310 313 315 318 321 323 324 324 324 324 324 323 322 321 322 321 318 318 321 321 319 319 319 319 320 321 320 320 321 320 318 317 318 318 318 320 322 323 323 322 321 320 320 319 318 318 317 317 317 316 317 317 317 317 318 318 318 318 319 319
299 299 299 299 299 299 299 299 300 300 300 301 301 302 302 302 303 303 304 304 305 305 306 306 307 308 310 313 315 317 320 322 323 323 323 322 322 320 319 319 318 315 316 319 318 316 317 317 318 319 319 319 320 319 319 318 318 318 318 319 320 322 321 321 319 319 319 318 318 317 317 317 316 317 317 318 318 318 319 319 320 320 320 320 320
299 299 299 298 298 298 299 299 299 299 300 300 301 301 302 302 302 303 303 303 304 304 305 306 306 307 308 310 312 313 315 317 318 320 320 319 318 317 315 315 313 312 313 314 315 314 315 315 317 318 318 319 319 319 319 318 318 318 319 319 320 320 320 319 319 318 318 318 319 319 318 318 318 319 319 320 320 320 320 320 320 320 320 320 319
299 298 298 298 298 298 298 299 299 299 300 300 300 301 301 301 302 302 302 303 303 303 304 305 306 306 306 308 310 311 311 312 312 314 314 314 313 312 311 311 310 309 309 309 311 312 312 314 316 317 318 319 318 319 319 319 319 319 319 319 320 320 319 319 319 318 319 319 319 318 319 319 319 320 320 320 320 320 319 320 319 319 319 319 318
298 298 298 298 298 298 298 299 299 300 300 300 300 301 301 301 301 301 301 302 302 302 303 304 306 306 306 307 308 309 309 309 308 308 308 309 309 308 308 308 308 307 307 306 308 310 311 312 314 315 317 318 318 318 319 319 319 319 319 319 319 320 319 319 319 318 318 318 317 317 316 317 318 318 319 318 318 317 317 318 317 317 317 316 315
298 298 298 298 298 299 299 299 300 299 300 300 300 300 300 300 300 300 301 301 302 301 302 303 305 307 307 306 307 308 308 308 307 306 306 306 306 306 306 306 306 305 305 305 306 308 309 309 311 313 314 316 317 317 318 319 319 319 320 320 320 319 319 318 318 317 316 316 316 316 316 316 316 316 316 316 315 315 315 315 315 314 313 312 311
298 298 298 299 299 299 299 299 299 299 299 300 300 300 300 300 300 300 300 300 301 301 302 303 305 307 307 307 307 307 307 307 307 306 305 304 305 305 305 306 305 303 303 303 303 304 305 305 307 309 311 313 314 315 316 317 318 319 319 319 318 318 316 315 315 315 314 314 315 316 316 317 316 314 314 314 313 313 313 312 311 310 308 306 304
299 299 299 299 299 299 299 300 300 300 300 299 299 299 300 299 300 299 299 299 301 302 302 303 304 306 307 306 306 306 306 307 307 307 306 305 304 304 304 304 304 302 302 301 301 301 302 302 303 305 306 308 310 312 313 314 315 316 316 316 316 315 314 313 313 313 313 314 315 315 316 317 316 314 312 312 312 311 310 309 307 305 302 300 299
299 299 300 300 300 300 300 300 300 300 300 300 299 299 299 299 299 299 299 299 300 302 302 302 303 304 305 306 306 306 306 306 306 308 308 307 307 305 304 304 304 305 304 303 301 302 302 301 301 302 302 303 305 308 310 312 313 313 313 313 313 313 313 313 313 312 312 312 312 311 312 313 312 311 309 308 308 306 305 304 302 300 299 298 298
299 299 300 299 299 300 300 300 300 300 300 300 299 299 299 300 299 300 300 299 299 300 300 300 301 302 303 305 305 306 306 306 305 306 307 307 307 307 305 304 304 304 303 302 301 301 302 301 300 300 300 300 301 302 304 306 308 309 311 312 312 312 312 312 311 310 309 308 307 307 307 307 305 304 302 302 301 301 300 300 300 299 299 300 300
299 299 299 299 299 299 299 300 300 300 300 300 299 299 299 300 300 300 300 300 299 298 298 298 298 299 301 303 304 305 306 306 305 305 305 305 305 305 304 304 303 303 302 300 299 300 300 299 299 299 299 299 299 299 300 301 302 304 305 307 308 308 308 308 309 307 305 304 303 303 302 301 300 300 300 301 301 302 302 303 303 303 303 303 303
298 299 298 299 299 299 299 299 299 300 300 300 300 299 299 299 300 300 300 300 300 299 298 297 297 298 299 300 302 303 304 305 305 305 305 304 303 303 303 303 302 302 301 300 299 299 299 298 298 298 298 298 298 298 298 299 299 300 301 302 302 303 303 303 303 302 300 300 299 299 299 300 300 301 302 303 303 304 304 304 304 304 304 305 305
299 299 298 299 299 299 299 299 299 299 299 299 299 299 299 299 299 300 300 300 300 300 299 298 297 297 298 299 300 300 301 303 303 304 304 305 304 303 302 302 302 302 302 300 300 299 299 299 298 298 297 298 297 297 297 298 298 299 299 299 299 299 299 299 299 299 298 299 299 300 301 302 302 302 303 303 303 303 303 304 304 305 305 305 305
299 298 298 298 299 299 299 299 299 299 299 299 299 299 299 299 299 299 300 300 300 300 299 299 298 297 297 297 298 298 299 300 301 302 303 303 303 303 303 303 303 303 303 303 302 302 302 302 301 299 298 298 297 297 297 297 297 297 297 298 297 297 298 298 299 299 300 300 301 301 302 302 302 302 302 303 303 303 303 303 303 303 303 303 303
299 299 299 299 299 299 299 299 299 299 299 299 299 299 299 299 299 299 300 299 300 300 300 299 299 298 297 297 296 297 298 298 299 300 301 301 301 302 303 302 302 303 303 303 303 302 301 300 299 298 298 298 297 297 297 297 297 297 297 297 297 298 299 300 300 300 300 301 301 301 302 302 302 302 302 302 302 302 302 302 302 301 301 301 300
299 299 299 299 299 299 299 299 299 299 299 299 299 299 299 299 299 299 299 299 299 299 299 300 300 300 299 297 296 296 296 297 297 298 298 298 299 300 301 302 301 302 303 303 302 301 299 298 297 297 297 298 298 298 298 298 297 297 297 298 299 300 300 300 300 300 300 300 300 301 301 301 301 301 300 300 300 300 300 300 299 299 298 298 298
299 299 299 299 299 299 299 299 299 299 299 299 299 299 299 299 299 299 299 299 299 299 299 300 299 300 300 299 298 296 295 295 295 295 296 297 297 297 298 300 300 301 301 301 300 299 298 297 297 297 297 298 298 298 298 298 298 298 299 299 300 300 300 300 300 300 300 300 300 300 300 300 299 299 299 298 298 298 298 298 297 297 297 297 297
300 300 300 300 299 299 299 299 299 299 299 299 299 299 299 298 299 299 299 299 299 299 299 299 299 299 299 300 299 298 297 295 295 295 295 295 296 296 296 296 297 298 298 297 297 297 297 297 297 298 298 298 298 298 299 299 299 299 299 300 300 300 300 300 300 300 300 300 299 299 298 298 298 298 297 297 297 296 296 296 296 296 296 296 296
Wind_Speed
7 13 14 15 18 22 24 24 25 25 24 26 28 29 30 30 29 28 27 28 26 20 19 22 24 25 24 21 21 21 21 22 23 24 25 23 22 20 22 23 23 23 22 21 20 20 19 18 18 18 17 18 17 16 15 14 14 15 17 18 17 18 18 17 18 20 19 15 14 12 9 8 7 8 8 8 10 11 10 9 9 9 8 6 6
6 9 10 14 17 20 22 22 23 21 20 24 25 25 24 24 24 21 16 19 23 22 25 28 28 27 25 23 23 23 21 22 22 24 24 22 21 20 21 22 22 22 21 20 20 19 19 19 19 18 18 17 16 16 15 14 15 16 18 19 18 19 20 19 21 19 15 13 12 10 8 7 4 4 4 4 6 8 9 8 7 8 9 7 6
5 5 7 11 14 15 16 16 16 15 18 21 20 20 21 21 23 23 22 24 29 34 38 39 37 33 29 25 23 21 21 22 22 22 21 21 20 19 19 19 20 21 20 18 18 18 19 19 19 18 18 18 17 17 16 15 16 16 18 20 19 19 19 20 20 16 15 17 12 5 3 3 2 1 2 2 3 3 5 5 5 7 9 8 8
6 6 6 10 13 13 14 14 11 11 18 21 19 19 21 22 25 28 30 30 32 38 40 41 39 34 30 25 22 20 19 20 20 20 20 20 19 18 18 18 18 19 19 18 17 18 19 18 18 18 19 19 18 18 18 18 18 18 19 20 20 19 18 18 17 15 19 18 9 3 1 1 1 2 3 2 1 2 2 3 4 7 8 8 8
9 9 8 9 12 13 15 16 13 13 19 21 20 21 23 26 29 30 32 32 32 32 31 33 33 29 25 21 17 17 17 19 20 19 20 19 19 19 19 19 18 18 17 17 17 18 19 18 17 17 18 19 19 20 20 19 19 20 21 21 21 19 19 19 17 14 18 19 12 6 3 1 1 3 4 2 1 3 3 3 5 7 9 9 9
7 9 10 9 10 13 15 15 14 14 16 17 18 19 21 27 32 30 28 26 22 19 18 25 31 29 25 22 20 20 18 20 21 20 20 19 18 19 19 19 18 17 17 16 16 17 18 17 17 17 17 19 20 21 21 19 19 20 21 21 20 19 19 21 19 15 17 17 13 9 4 2 6 8 5 0 1 4 4 3 4 6 9 9 9
4 6 8 7 8 12 14 15 13 11 11 11 12 13 12 19 26 22 18 16 13 12 14 19 26 29 29 28 27 25 21 19 20 20 20 18 18 19 19 19 18 17 17 16 15 16 17 17 16 16 18 19 20 21 21 20 20 20 21 21 19 19 19 22 22 18 18 18 13 9 2 2 11 13 6 3 2 3 5 5 5 5 7 7 8
6 6 7 8 10 13 12 12 11 10 13 14 14 14 10 13 17 13 9 11 10 11 14 17 19 22 25 25 23 22 20 18 19 19 19 19 20 20 19 19 18 17 17 16 15 15 16 16 16 17 18 20 20 21 21 19 20 20 21 21 20 20 18 20 23 21 20 19 15 11 5 5 14 14 11 9 4 1 4 5 6 7 6 6 7
4 5 6 5 5 4 1 6 8 10 16 19 19 19 15 15 18 11 5 6 7 9 12 15 14 15 18 20 19 19 19 18 19 19 19 19 20 19 18 18 18 17 16 16 15 16 16 15 16 18 19 19 19 19 19 19 20 20 21 22 20 19 17 18 22 23 22 21 16 11 6 11 15 11 11 12 6 3 3 3 5 6 6 7 7
5 5 6 7 9 9 9 6 4 5 12 19 21 21 18 18 18 13 4 4 6 7 8 11 11 12 14 16 16 17 18 17 18 18 19 19 19 19 19 19 19 17 16 16 16 16 16 15 17 19 19 19 19 19 20 20 21 20 19 20 20 19 18 18 21 22 22 21 17 12 11 14 12 7 11 12 8 5 3 3 6 6 5 7 9
7 8 8 10 14 15 13 10 6 2 4 11 14 13 15 18 15 11 6 4 6 6 6 8 10 10 12 14 16 18 19 18 18 18 19 19 19 19 19 20 19 18 16 16 16 16 17 17 18 19 19 19 18 18 21 22 21 20 18 18 19 19 19 19 20 21 20 20 17 13 13 15 13 11 15 17 12 7 5 5 7 7 7 8 8
8 8 8 9 11 14 14 14 11 7 3 2 2 1 6 11 11 9 6 4 6 7 6 6 8 9 12 14 17 19 20 21 21 21 21 20 20 19 19 19 19 18 17 17 17 17 18 18 18 18 19 18 17 17 20 21 21 20 19 18 18 19 20 19 21 21 20 21 19 14 13 14 16 16 18 21 17 14 12 8 7 8 6 5 7
8 7 8 7 8 10 12 13 12 9 8 8 7 5 3 5 6 6 5 4 6 8 9 10 10 10 13 16 18 19 20 22 22 22 21 21 21 20 20 20 20 19 18 18 19 19 20 19 18 19 19 18 17 17 18 19 20 20 19 18 18 18 19 19 20 20 19 21 20 16 14 15 17 16 17 20 18 16 16 11 8 8 5 4 6
8 8 8 7 8 10 10 10 9 8 7 8 10 10 6 1 3 4 5 7 9 11 12 15 17 16 16 18 19 19 20 21 22 21 20 20 21 21 21 22 22 21 20 20 19 19 19 19 17 17 18 18 18 17 17 18 19 18 18 18 18 17 18 18 18 18 18 19 20 18 15 16 17 15 15 19 18 18 19 16 12 7 5 6 5
8 9 9 8 9 10 9 8 8 8 9 10 11 12 11 7 3 2 4 7 11 12 12 14 19 22 21 21 21 20 20 20 22 21 20 20 22 22 22 23 23 22 21 20 20 19 19 18 17 17 17 18 18 18 18 18 17 17 17 17 17 16 16 17 17 17 17 18 19 17 15 16 17 14 14 18 19 18 20 23 20 10 4 4 4
8 9 9 10 12 13 13 14 12 10 9 10 11 11 12 11 7 4 6 8 9 11 11 12 16 20 21 22 22 21 20 20 21 20 19 20 22 22 23 23 23 21 20 20 20 19 19 18 17 17 17 18 18 17 17 18 18 17 17 17 17 16 16 16 17 17 17 17 17 16 15 16 17 15 14 16 18 18 20 25 26 18 10 4 2
8 8 8 10 14 16 17 18 18 15 11 10 10 9 9 10 9 7 8 11 11 11 12 13 15 18 19 21 23 23 21 21 21 21 20 20 21 22 22 23 22 20 20 21 21 20 19 19 18 18 17 17 17 17 17 18 18 17 18 18 17 16 15 15 15 16 17 17 16 16 15 15 17 17 15 16 18 18 20 25 26 23 17 9 4
9 9 9 11 14 16 18 19 21 20 18 16 14 13 11 10 9 10 10 10 12 15 17 17 18 19 20 22 24 24 23 22 22 21 20 21 21 22 22 23 22 20 21 22 21 20 20 19 19 18 17 17 17 17 17 17 18 17 17 17 16 16 15 14 14 15 15 16 16 16 15 15 16 16 16 18 19 19 21 25 24 21 17 13 10
9 9 9 10 14 17 18 19 20 21 21 21 20 20 19 18 14 11 15 16 17 19 20 19 20 22 23 24 25 25 24 24 23 22 21 21 21 22 23 24 23 23 24 24 21 21 21 20 19 19 18 18 17 17 17 17 18 18 17 16 16 16 15 14 14 14 15 15 15 15 15 14 14 14 15 17 19 19 20 24 24 19 15 13 15
8 8 8 10 13 16 18 19 19 20 22 23 24 23 23 23 20 12 11 16 16 16 18 18 19 21 23 23 24 23 23 22 21 21 22 21 21 23 24 23 24 25 26 24 23 22 22 21 20 20 20 19 17 16 16 17 17 17 16 16 16 17 16 15 14 14 15 15 15 15 15 14 13 13 15 16 18 18 20 23 24 21 15 11 15
8 8 8 10 13 15 18 19 20 21 23 24 24 24 24 23 21 17 11 11 11 8 11 15 17 20 22 21 20 20 20 20 20 20 20 20 21 22 23 24 25 26 25 24 24 23 22 22 20 20 20 19 18 17 16 17 17 17 17 16 17 17 16 14 14 14 14 15 15 14 14 14 14 14 14 15 17 18 19 22 23 22 18 12 13
9 8 8 10 13 15 16 18 20 21 22 23 23 23 23 23 22 20 17 15 14 10 7 10 14 19 21 20 19 19 19 19 19 19 20 21 22 22 22 24 26 26 25 25 24 23 22 21 20 19 20 19 18 17 16 17 17 16 17 17 17 17 16 15 14 14 15 15 15 15 14 14 14 14 13 13 16 17 18 21 22 23 22 17 14
8 8 10 11 13 14 14 16 18 18 19 21 22 22 22 22 23 22 21 18 15 13 11 11 12 15 18 20 20 20 20 20 20 21 22 23 24 23 22 25 27 26 27 26 24 23 22 22 20 19 19 19 17 17 17 17 17 16 16 17 17 17 16 16 15 15 15 16 15 15 14 14 14 14 13 13 15 17 18 19 21 23 24 22 18
9 9 10 13 14 14 15 16 17 16 17 18 19 20 22 22 23 23 22 20 16 14 12 12 12 13 16 19 19 19 21 23 23 24 25 25 25 24 24 26 28 28 28 26 24 24 23 22 22 20 19 19 18 17 17 17 16 16 16 17 17 16 16 16 16 15 15 16 16 16 15 14 14 15 14 13 13 15 18 20 22 23 25 25 23
10 9 10 12 13 14 15 15 16 16 16 17 16 17 19 20 22 23 22 20 16 14 13 13 12 12 14 18 18 17 19 22 22 21 23 25 25 25 27 29 30 29 29 27 25 25 25 23 21 20 20 20 19 18 18 17 16 16 16 16 16 15 15 15 15 14 15 15 15 15 15 14 13 14 15 13 11 14 16 18 20 23 25 25 25
10 10 9 10 11 13 15 15 16 16 16 16 16 16 16 17 19 21 22 21 18 15 14 14 14 13 14 17 18 17 18 21 21 20 19 20 22 25 27 29 30 31 29 28 28 27 26 24 21 21 21 20 19 19 17 16 16 16 15 15 15 15 14 14 14 14 14 15 15 14 14 15 14 14 14 12 11 13 15 16 18 20 23 23 23
9 9 9 9 10 12 14 15 16 17 17 17 17 17 17 17 19 22 23 22 19 17 16 14 14 15 15 15 16 18 20 22 23 22 19 20 23 26 26 27 29 32 31 29 29 28 26 24 23 22 20 20 20 19 17 16 15 15 16 17 17 16 15 14 14 14 14 16 16 13 11 13 13 13 13 12 12 15 18 18 18 19 20 19 17
9 10 10 10 10 11 14 15 16 17 18 18 18 19 20 20 21 23 25 23 21 19 18 15 12 13 15 15 17 21 22 22 22 21 20 22 26 28 28 26 26 30 32 29 28 28 27 25 24 22 20 21 21 19 18 16 14 14 15 17 18 18 16 15 14 13 14 15 15 11 9 12 13 12 13 11 10 12 15 16 16 16 16 14 13
10 11 11 11 10 11 14 15 16 17 18 19 21 22 23 24 24 25 26 25 23 21 19 17 14 12 14 15 17 21 22 20 21 21 20 24 27 27 29 27 23 24 29 31 28 27 26 25 25 23 21 22 20 19 19 17 13 12 12 13 16 17 17 16 13 12 12 13 13 10 10 13 13 13 14 11 8 8 11 14 14 12 12 13 14
10 10 11 11 11 13 15 16 17 19 20 20 22 23 24 26 27 27 27 27 25 23 22 20 18 14 11 13 16 19 20 21 22 22 22 24 27 27 27 28 26 23 25 30 30 27 26 26 26 24 22 22 20 19 20 18 15 13 12 13 14 15 16 16 13 12 11 12 12 11 12 15 15 15 15 12 10 9 10 11 11 9 9 10 11
10 10 10 10 12 14 16 17 19 21 22 22 22 24 25 27 28 28 28 27 27 26 25 23 22 18 12 8 13 17 18 20 23 23 24 25 27 29 27 29 31 27 25 30 31 27 27 26 25 25 23 21 21 20 20 17 16 15 13 13 13 15 17 16 14 13 12 13 15 15 16 17 17 16 16 15 14 14 14 14 13 11 10 9 8
9 10 10 10 11 14 16 17 19 21 22 22 22 23 25 26 28 28 28 28 28 28 27 27 25 22 16 8 9 15 18 20 22 24 26 25 26 29 28 28 31 28 26 30 31 28 27 26 25 24 23 22 22 21 19 17 16 16 15 13 13 15 17 17 16 16 16 16 19 20 20 19 18 17 17 16 16 16 15 15 14 13 12 10 9
8 9 10 10 11 14 16 18 20 20 21 21 21 22 23 24 24 26 28 30 29 29 29 28 28 25 20 13 5 11 18 21 21 23 27 27 27 28 28 28 29 27 27 30 30 28 27 26 25 25 23 23 23 22 20 18 16 16 15 14 13 16 19 19 18 19 18 18 20 21 21 20 19 17 16 16 16 15 13 12 11 10 9 8 7
8 8 10 11 13 15 17 19 21 21 21 21 22 23 22 22 23 26 29 30 29 30 30 29 29 28 24 18 10 3 12 18 21 23 25 27 28 26 25 26 27 25 27 30 29 27 27 26 25 25 24 22 22 22 21 19 16 15 14 14 15 17 19 19 19 20 20 20 20 20 20 20 18 17 16 15 15 14 13 11 10 9 7 6 6
7 8 10 13 15 16 18 19 20 21 22 23 23 23 22 23 24 27 29 29 29 29 31 31 30 30 27 22 16 9 1 10 18 23 25 26 27 25 24 26 28 26 28 30 29 27 27 25 24 24 23 22 21 22 22 20 18 16 15 15 17 19 19 19 19 20 20 20 19 18 19 19 18 16 15 14 13 12 12 11 10 9 8 6 5
7 8 10 13 15 16 17 18 19 21 23 23 22 22 22 23 25 27 29 29 30 31 32 33 33 31 28 26 21 15 10 6 11 20 23 24 24 24 23 25 26 25 26 28 28 26 25 25 24 23 23 22 21 21 21 20 19 18 17 18 19 20 21 21 21 20 20 20 19 18 19 19 18 16 14 12 11 9 9 9 8 8 7 6 5
9 10 11 14 15 16 16 18 20 22 22 22 22 22 23 24 25 27 28 29 31 32 31 32 32 30 28 26 24 20 16 14 12 15 20 22 23 24 23 23 24 24 24 25 27 26 24 24 24 24 24 24 22 21 21 21 20 20 19 20 21 22 22 22 21 20 20 20 19 18 17 16 16 15 13 11 9 7 6 6 6 5 5 4 3
12 13 15 16 16 16 18 20 22 23 22 21 21 22 24 25 25 25 27 29 31 30 29 29 29 29 27 25 25 23 21 19 17 16 18 23 25 24 23 24 25 26 25 24 26 27 24 23 24 23 24 25 24 22 22 23 23 22 22 23 23 22 22 20 20 20 19 18 18 16 14 14 13 12 10 8 6 5 5 5 4 4 4 3 3
14 15 15 16 17 18 21 23 24 24 22 21 21 23 25 25 24 24 26 28 29 27 26 26 26 26 26 25 25 24 22 21 20 18 18 23 28 28 26 26 27 27 27 25 26 28 27 25 24 23 22 23 23 21 21 22 23 22 22 24 24 24 22 20 19 19 16 14 13 12 11 11 10 9 7 6 4 3 4 4 3 2 1 2 3
15 16 16 17 19 20 22 24 24 23 22 22 22 23 24 23 23 26 27 27 26 23 22 23 25 25 25 25 25 24 22 21 21 21 21 24 28 29 29 29 28 28 28 26 26 28 29 27 25 24 23 22 21 19 18 19 21 22 22 22 23 23 22 19 15 13 11 9 9 9 8 7 6 6 5 4 3 2 1 1 0 1 1 2 3
15 15 16 18 19 20 21 21 22 22 23 23 23 24 24 23 24 26 26 23 21 20 21 23 24 25 25 24 23 23 21 21 22 24 25 26 27 27 28 31 31 29 28 27 27 29 29 28 27 26 25 23 21 19 17 16 17 18 18 17 15 14 13 11 10 9 10 11 12 12 11 10 8 5 3 2 2 1 2 2 3 3 3 3 2
15 16 18 18 19 21 21 21 21 22 22 23 24 24 24 24 26 26 24 21 20 19 20 21 22 24 24 23 22 21 21 21 22 24 26 26 26 26 27 29 30 29 28 26 26 27 28 27 27 26 25 23 21 19 17 15 14 13 12 10 10 10 10 11 12 13 13 13 12 11 10 9 7 5 3 3 3 3 4 4 4 4 3 3 2
16 17 18 18 19 19 20 20 21 21 22 23 23 23 24 26 27 25 22 22 23 21 19 20 22 22 22 22 21 20 20 20 20 22 24 24 23 23 24 25 27 28 28 25 24 25 25 26 25 24 23 22 20 19 18 16 15 13 11 10 11 11 11 12 14 14 13 12 10 8 7 6 5 4 3 2 2 2 3 3 3 3 3 3 4
17 18 19 19 19 19 20 20 20 20 20 21 21 22 22 24 26 25 24 23 24 24 23 23 22 21 21 21 21 20 19 18 18 20 22 23 23 23 23 23 25 27 27 25 24 25 26 25 24 22 21 20 19 18 17 16 15 13 12 12 12 12 11 11 12 12 11 9 7 6 6 5 5 5 5 5 5 5 5 5 5 6 6 6 7
14 15 16 17 17 18 19 20 20 20 20 20 20 20 21 21 22 23 25 26 25 25 25 25 24 22 21 21 20 20 20 18 17 18 20 21 21 23 24 24 25 26 26 24 23 24 25 24 21 19 19 18 17 17 16 15 14 12 11 10 9 9 9 8 9 9 8 7 7 7 7 8 8 8 9 9 10 10 10 10 10 10 10 10 11
11 12 13 14 15 16 17 18 19 20 20 20 19 18 19 20 19 20 22 25 27 26 25 24 24 24 22 21 21 22 21 20 19 18 19 19 20 22 23 24 24 25 23 22 22 22 23 22 20 18 17 16 15 15 14 12 11 10 9 8 7 8 8 8 8 9 10 10 10 11 12 13 14 14 14 14 15 15 14 14 14 14 13 13 12
9 9 10 11 12 14 15 15 16 18 20 21 20 18 17 18 19 19 18 20 24 27 26 24 23 23 23 22 23 22 22 22 21 20 19 19 18 19 21 22 22 22 21 19 19 18 18 18 17 15 14 13 12 11 10 9 8 7 7 6 7 8 9 10 12 13 14 15 16 17 17 18 18 18 17 17 18 17 16 16 15 14 13 12 11
6 6 7 8 9 10 11 12 13 15 16 18 19 19 18 17 17 18 18 18 21 24 26 25 24 23 22 22 22 22 22 22 22 22 21 21 19 19 19 18 18 18 19 17 16 16 15 15 15 14 13 13 11 9 8 7 7 7 8 8 9 10 12 14 17 19 20 21 21 22 21 21 20 19 19 18 17 17 16 16 14 13 12 11 9
6 6 6 7 8 9 9 10 11 12 13 13 15 17 19 18 16 14 15 17 19 20 22 23 23 23 23 21 20 20 21 22 22 22 23 22 20 19 18 16 15 15 16 16 14 14 14 13 14 14 14 14 13 11 9 9 8 10 11 11 12 14 16 18 21 22 23 23 23 22 21 20 19 19 19 18 17 16 16 14 13 12 10 9 8
6 6 6 7 8 8 8 10 11 11 11 11 11 13 15 16 15 14 14 15 16 17 18 19 19 20 20 19 18 17 17 18 19 21 22 23 22 19 18 17 15 14 13 13 13 13 13 12 12 13 13 13 13 12 10 10 10 11 13 14 15 17 18 20 22 22 21 21 21 20 19 18 18 18 18 17 16 15 14 13 12 10 10 9 9
5 6 6 7 7 7 7 8 9 10 11 11 12 13 13 11 11 12 14 14 14 13 13 13 14 15 15 15 15 14 14 14 15 17 20 23 23 22 20 18 16 15 14 13 13 13 12 12 12 13 14 13 12 12 12 12 12 13 14 15 16 17 18 19 18 18 17 18 18 18 19 17 17 17 17 16 15 13 13 12 10 9 9 9 9
Wind_Direction
122 143 162 169 173 176 180 187 194 202 204 199 196 196 198 202 203 206 205 194 185 193 203 203 202 207 211 212 215 219 223 222 218 219 220 218 216 212 210 209 212 211 208 208 207 207 209 210 209 205 203 205 210 211 204 195 182 175 174 177 176 160 151 154 153 141 125 115 115 118 131 153 176 185 190 202 204 204 203 203 204 196 188 185 187
107 136 165 179 184 181 179 183 189 198 204 204 202 199 199 202 206 208 199 175 176 194 208 207 204 205 207 211 216 215 218 222 220 220 220 219 218 215 211 211 212 210 207 207 208 208 210 210 209 207 206 206 207 208 205 193 181 180 179 177 174 163 156 157 157 146 126 119 119 110 108 121 148 178 191 219 224 212 207 215 220 200 190 189 191
111 145 176 185 188 179 178 184 188 197 207 209 206 203 205 207 207 206 195 186 194 202 204 202 201 204 208 212 215 212 214 221 224 223 221 222 223 218 214 213 212 209 207 207 208 207 209 211 210 208 207 205 200 198 200 194 183 185 186 179 170 161 157 160 164 160 139 125 119 117 106 104 109 122 166 216 241 229 208 214 217 196 193 196 196
141 169 183 185 183 176 184 191 186 197 207 208 207 206 207 206 208 210 205 202 209 211 206 200 197 198 203 208 213 213 214 220 223 224 223 224 222 217 215 213 213 213 209 208 208 208 209 211 210 208 206 203 200 198 198 195 188 187 189 185 175 162 156 161 167 168 158 144 125 100 85 124 177 137 128 137 247 251 213 210 211 193 195 201 201
160 171 178 183 179 179 194 195 187 198 206 206 209 209 206 206 211 216 213 210 215 217 208 196 190 187 190 197 206 208 209 214 216 217 219 218 215 213 213 213 216 217 212 208 209 210 210 210 211 211 208 205 204 204 200 195 192 190 188 187 186 176 166 166 168 171 174 167 153 137 123 196 198 145 142 127 227 226 206 212 219 202 198 203 206
160 164 170 174 168 177 197 200 194 202 207 206 209 210 207 209 214 218 217 217 221 222 211 194 187 184 186 194 199 197 197 203 208 211 211 207 209 213 213 213 215 215 213 210 208 209 209 210 214 216 212 206 204 205 200 196 195 193 190 190 194 191 178 170 170 177 186 182 168 154 147 199 171 146 144 132 183 199 201 206 209 200 199 201 207
116 128 150 153 153 176 196 196 192 195 195 197 201 207 218 222 224 228 229 229 228 224 215 199 192 191 194 199 201 197 194 197 206 214 212 207 212 217 214 212 213 213 212 212 211 209 209 212 216 216 211 204 201 201 197 196 198 195 192 194 198 199 188 176 175 179 189 193 191 185 188 202 172 160 160 164 152 190 195 191 193 192 198 202 207
130 130 144 150 167 191 200 184 182 187 180 180 186 193 209 229 241 264 263 234 229 224 213 203 203 205 200 196 198 199 195 196 205 216 218 213 213 215 216 215 213 213 212 212 212 210 211 214 213 210 206 200 197 197 195 195 198 196 194 197 202 204 200 189 183 183 190 197 201 209 232 189 176 174 172 163 137 140 168 179 191 189 196 205 204
122 133 139 133 157 198 181 142 169 192 188 189 190 190 191 203 223 246 266 243 247 246 224 210 217 223 207 195 196 199 198 200 205 213 218 216 214 215 217 217 215 213 212 212 214 213 212 210 204 202 199 195 193 193 195 195 195 195 195 199 205 207 208 202 193 192 197 199 197 199 183 164 173 180 174 164 146 148 155 159 178 177 186 196 193
40 46 57 45 40 37 42 82 140 185 194 200 200 195 186 185 203 217 238 284 274 270 251 232 238 238 215 202 198 198 199 200 199 205 212 213 214 216 217 218 216 215 213 212 214 213 208 202 198 198 196 194 194 192 193 195 194 195 196 199 207 211 211 211 207 205 204 200 199 196 172 161 165 169 173 169 153 150 153 150 167 169 175 187 189
40 38 41 39 42 48 50 52 50 60 196 212 215 202 179 172 183 197 216 260 261 269 267 251 255 248 223 210 207 204 203 201 197 199 205 208 211 215 217 217 218 218 217 213 210 206 200 196 195 197 196 195 198 197 196 197 196 196 197 201 209 214 215 217 217 217 211 203 205 210 197 186 185 186 184 177 164 153 147 147 168 175 173 180 189
43 44 43 40 41 45 46 45 45 38 17 316 278 228 151 155 162 173 192 223 237 246 252 256 261 249 232 222 215 211 210 208 205 203 205 207 210 213 214 216 218 217 215 208 201 197 195 195 195 197 198 199 202 203 203 202 200 200 201 203 209 214 217 221 220 221 217 208 208 218 221 216 209 203 193 186 181 171 159 150 160 169 166 173 185
39 41 41 41 40 42 39 37 38 30 11 6 6 11 60 123 144 158 170 185 213 229 234 241 244 239 232 227 223 220 217 216 214 212 212 211 209 210 212 214 214 211 209 203 196 193 195 197 198 198 200 204 205 204 203 203 201 201 203 204 209 212 216 221 221 223 223 216 214 220 229 227 217 211 201 194 189 172 158 149 155 163 148 144 174
35 33 35 36 34 38 36 27 22 10 352 351 348 342 347 38 162 173 173 186 205 216 223 225 225 225 224 224 226 225 222 222 221 220 219 214 209 208 210 211 208 206 205 202 197 196 197 197 198 198 201 205 206 204 201 200 200 202 205 207 210 213 216 219 220 224 226 220 218 222 230 226 217 214 206 197 191 177 164 155 149 145 131 138 155
34 30 30 29 26 28 26 21 10 350 338 337 333 320 312 310 295 212 188 204 212 211 214 217 217 219 220 222 225 224 223 225 225 224 222 215 209 209 210 208 205 204 204 203 199 196 196 196 196 196 198 201 202 202 202 202 204 206 207 209 211 212 213 215 218 221 221 218 218 222 227 223 215 214 212 205 200 191 180 168 158 142 122 142 144
33 31 26 23 28 30 24 20 18 10 352 343 340 317 291 288 289 248 207 204 203 204 213 220 216 216 220 223 224 225 224 223 223 223 221 216 211 210 210 207 203 204 202 198 196 194 194 194 194 194 196 198 200 202 205 207 207 207 207 208 210 211 211 213 217 219 218 218 218 220 222 220 218 218 215 212 209 202 192 180 170 162 151 146 158
29 30 27 23 29 30 27 24 22 23 20 8 358 337 299 281 266 238 209 198 199 208 218 225 217 209 216 224 225 225 224 222 221 220 218 218 215 212 210 206 204 206 202 194 192 194 195 195 195 195 197 199 200 204 207 207 206 206 207 209 211 211 210 211 215 217 218 219 218 218 220 222 222 222 220 217 213 206 196 188 181 175 164 152 161
22 24 24 22 24 23 22 23 21 21 22 18 11 360 344 319 284 261 253 242 234 227 219 220 219 211 212 221 224 225 225 225 223 218 216 215 213 211 207 204 204 204 199 194 194 196 197 198 197 196 198 198 199 202 206 207 206 207 210 213 213 211 208 207 211 214 215 215 215 215 219 222 223 224 223 217 211 207 201 192 188 185 178 170 165
17 20 18 16 18 17 16 16 17 18 18 17 15 12 8 2 345 300 271 267 262 247 229 223 224 221 219 221 224 225 225 226 222 216 215 212 207 205 203 203 203 201 196 195 195 196 197 199 198 198 197 196 197 200 204 207 208 209 211 213 213 210 208 205 208 214 214 212 211 213 216 217 219 222 218 214 211 210 206 197 192 190 190 188 177
14 16 15 13 15 15 14 14 13 14 16 16 16 15 13 12 9 348 285 273 275 261 238 230 231 231 228 223 223 224 222 222 219 215 214 211 205 202 202 202 202 199 195 194 195 197 198 198 199 199 196 193 194 195 198 203 207 208 210 211 211 209 208 209 211 215 215 213 212 212 214 214 213 214 210 209 212 214 211 204 198 193 193 200 190
14 11 11 12 13 13 14 16 14 14 15 15 14 15 15 12 11 7 344 321 321 296 243 233 236 239 237 229 224 222 219 219 219 216 214 209 204 203 204 203 199 197 195 193 195 197 197 198 198 199 195 192 192 191 193 198 202 206 210 212 211 209 209 212 214 216 213 212 213 212 212 210 209 210 207 208 213 216 213 207 201 196 197 205 202
14 9 9 10 11 10 11 15 16 14 13 12 12 13 13 10 6 4 3 2 359 348 301 264 250 241 236 233 229 222 217 217 219 220 213 204 201 203 205 200 197 197 196 193 194 196 197 198 197 197 194 192 193 192 193 196 198 204 210 211 211 211 211 211 213 216 211 209 213 212 207 203 203 205 204 206 212 212 211 208 203 201 204 211 213
12 10 12 13 11 9 11 15 16 13 11 10 9 10 10 9 6 3 1 1 358 351 338 316 289 261 241 233 228 221 216 212 213 217 214 204 200 200 200 199 199 199 196 193 194 195 197 197 197 197 196 194 196 196 196 197 199 203 207 208 210 212 211 210 212 214 210 210 213 209 204 201 199 200 201 202 206 207 210 212 210 209 211 215 219
10 12 13 13 13 13 14 15 13 11 10 9 7 6 7 7 6 3 359 355 350 340 328 314 299 282 261 245 232 222 220 214 208 212 214 208 202 198 198 201 201 197 194 193 193 193 194 195 197 198 197 196 197 199 199 198 200 201 201 201 205 209 210 210 212 213 211 213 213 207 205 203 197 198 202 200 198 203 210 217 219 219 220 221 222
9 11 11 11 12 12 12 12 10 7 7 6 4 2 3 3 2 0 356 352 346 331 314 301 287 276 268 260 248 233 228 225 216 215 218 211 204 200 199 200 199 195 193 192 191 190 191 194 197 196 194 195 198 200 201 199 198 200 199 200 202 205 209 211 213 216 214 214 213 210 209 206 198 197 201 201 201 200 206 218 225 226 226 226 228
8 7 7 10 10 9 9 9 7 5 3 2 0 0 1 360 0 1 357 352 344 330 316 301 285 273 266 263 256 240 234 237 230 221 222 215 205 202 198 196 197 194 191 191 191 191 191 193 195 194 194 198 199 198 198 196 197 199 199 200 201 204 210 214 217 218 216 214 211 211 211 207 200 195 193 198 205 200 201 215 223 224 225 228 232
6 5 4 7 7 6 6 6 5 4 2 0 359 2 3 0 1 3 3 358 350 339 328 311 291 280 272 265 258 244 236 237 229 218 218 215 208 204 197 194 196 194 191 192 192 190 191 194 195 192 194 199 198 196 195 194 196 201 204 205 205 208 212 218 223 220 218 216 210 208 204 193 192 193 189 193 203 201 202 211 214 216 223 228 227
5 5 2 3 2 359 0 2 1 1 1 1 2 4 6 5 4 4 7 5 358 350 344 332 311 288 274 265 257 250 244 237 224 214 213 211 206 199 192 193 197 193 191 192 191 190 192 195 193 188 188 193 196 198 194 189 190 198 206 207 208 211 214 219 224 217 216 216 210 208 196 179 183 194 191 187 186 186 191 196 199 207 218 220 211
5 4 1 1 0 356 356 357 358 360 1 3 5 5 6 7 6 6 8 7 1 358 357 351 342 314 281 265 257 255 254 242 225 214 208 203 201 194 187 191 199 198 192 188 188 192 193 192 189 185 185 188 192 195 188 180 180 185 189 192 196 204 211 216 216 206 205 208 204 200 182 173 183 192 185 177 166 166 180 186 188 197 206 204 200
6 3 1 1 359 358 357 356 358 360 1 4 5 4 4 6 7 6 7 8 6 4 4 2 359 348 310 270 257 256 254 241 224 215 204 196 196 192 186 189 197 203 197 187 187 192 191 187 185 184 186 186 186 188 184 179 179 180 178 179 187 199 208 210 204 191 188 188 181 172 166 170 180 178 165 154 144 142 155 163 163 166 176 182 185
7 3 3 1 359 360 360 358 358 358 360 2 3 3 5 6 6 6 6 9 10 9 7 8 7 5 352 295 257 250 247 233 217 207 197 191 192 191 186 187 193 201 199 189 187 191 189 187 186 184 187 186 184 185 185 184 186 187 188 188 191 200 201 197 188 176 168 165 162 159 161 165 164 155 146 137 131 128 129 131 129 128 131 134 139
10 5 3 360 359 1 1 360 358 357 359 1 2 4 7 6 5 6 8 12 14 12 10 12 13 12 11 346 262 239 237 229 211 197 190 187 188 188 185 185 190 195 194 187 187 189 187 187 186 185 187 187 184 185 187 189 190 192 196 198 197 198 191 182 176 169 159 156 156 154 152 153 148 144 141 137 131 125 123 123 121 120 119 117 121
14 8 4 2 359 357 360 1 360 359 359 2 6 7 7 7 8 10 14 16 17 15 14 15 17 16 15 8 313 232 228 225 208 191 187 187 185 184 182 182 187 190 186 182 185 186 184 184 183 185 187 187 185 185 187 189 189 190 194 197 196 191 182 175 172 169 163 160 159 155 150 147 143 141 141 139 137 132 128 125 121 118 114 110 110
16 9 4 3 0 358 2 5 4 3 4 9 14 13 11 12 14 16 19 19 18 18 17 17 19 19 19 15 6 285 222 214 200 185 182 182 179 178 176 177 181 182 177 176 178 178 177 177 178 181 183 183 183 185 187 187 186 184 186 188 186 181 174 169 167 167 166 164 163 160 155 148 145 144 144 142 142 140 137 134 131 129 123 111 103
17 11 5 4 4 1 2 6 8 9 12 17 18 16 14 15 19 22 22 20 20 21 20 18 20 22 23 21 19 21 116 196 188 178 173 172 171 170 169 171 172 171 169 170 170 169 167 166 167 171 174 174 175 178 181 181 179 178 178 178 175 169 164 160 157 158 158 157 157 156 152 147 144 143 142 139 139 141 140 137 133 132 130 123 117
14 12 8 7 9 6 4 8 14 16 17 19 19 19 19 18 22 26 24 21 22 23 22 21 21 22 25 29 31 34 48 91 156 163 159 158 159 159 160 163 161 158 157 157 157 156 155 152 152 156 160 161 160 165 171 172 174 177 175 169 163 159 155 153 149 147 146 144 144 144 144 143 141 139 137 137 138 141 144 139 133 129 126 123 119
19 19 21 21 21 19 15 19 25 24 21 20 21 25 26 22 23 27 26 24 24 22 22 24 23 22 26 34 40 43 50 65 92 125 135 139 141 143 147 151 148 141 138 137 139 140 140 140 141 143 147 148 146 150 159 162 166 172 172 166 161 156 153 151 146 144 144 142 140 140 140 143 144 141 138 138 141 147 149 143 138 138 140 138 125
24 25 28 28 27 26 26 30 32 27 23 23 25 30 32 26 23 25 26 27 25 20 20 27 29 27 29 38 46 48 52 62 70 86 109 122 127 128 132 136 133 128 124 122 125 128 127 128 131 133 136 138 137 139 147 153 159 165 167 165 162 154 148 145 143 141 140 139 139 138 137 139 142 143 144 144 146 153 154 148 148 158 169 172 159
30 31 30 28 30 33 34 36 33 26 23 25 28 34 36 29 24 25 27 29 26 18 17 27 34 35 35 40 50 54 56 63 69 74 89 108 116 120 124 126 122 119 117 115 116 118 116 114 116 121 126 130 133 135 141 146 149 153 155 155 153 147 137 133 134 131 127 127 131 131 129 127 129 135 144 147 141 140 144 143 151 174 206 246 252
33 35 36 36 36 35 34 34 30 25 24 26 30 36 36 31 29 30 28 27 27 22 22 31 40 43 40 42 50 58 62 69 77 81 84 94 106 115 121 122 118 113 111 109 108 108 107 105 107 110 114 117 123 128 136 142 143 144 145 145 146 142 134 129 130 130 132 140 144 145 148 147 140 135 136 138 135 129 124 125 197 254 272 276 277
36 35 37 40 39 37 35 34 33 32 31 29 32 35 33 30 33 33 28 26 29 32 34 38 45 48 46 43 48 56 63 71 84 93 93 93 97 103 110 115 115 110 103 98 97 99 98 97 98 102 103 103 108 114 122 133 140 144 147 150 152 150 146 150 155 154 159 162 159 159 166 174 180 178 173 180 202 250 283 290 295 293 283 271 261
41 40 40 41 41 39 37 35 35 36 34 33 35 34 32 31 31 30 29 31 35 38 39 41 47 52 52 49 49 55 61 70 84 97 100 99 100 102 103 107 110 110 104 97 93 93 92 89 89 91 93 95 99 105 110 115 124 134 145 159 170 173 177 184 176 163 159 160 159 158 160 167 180 190 201 221 237 253 262 266 270 266 254 241 213
39 40 41 43 42 39 37 36 37 37 35 37 37 35 34 34 30 28 33 39 41 40 40 41 45 51 54 54 54 56 60 66 76 90 99 102 106 108 106 104 106 107 106 100 95 94 93 90 86 86 88 89 91 97 102 106 109 116 124 134 144 148 157 170 167 157 153 154 153 150 149 154 166 173 178 187 190 197 202 200 197 188 166 150 146
43 42 43 43 41 38 37 38 38 37 36 36 35 34 34 35 33 32 36 41 42 42 43 43 44 48 53 56 59 61 64 66 70 80 91 98 103 106 105 104 103 102 99 95 92 91 91 87 83 83 84 86 87 89 94 98 101 109 116 121 129 137 146 159 161 153 149 150 149 147 145 148 151 148 147 145 137 134 133 132 132 129 126 126 125
44 44 45 44 41 39 39 40 39 37 36 34 33 34 34 34 35 37 39 41 41 42 44 44 45 48 52 56 61 65 69 72 74 80 85 90 97 101 101 101 101 100 98 96 95 96 95 91 87 85 84 85 86 84 85 88 94 101 109 117 129 140 147 156 158 151 146 146 145 141 137 135 134 132 130 127 121 117 116 116 116 116 115 116 115
45 46 46 46 44 39 37 39 39 37 36 34 32 33 34 35 38 40 40 41 42 42 42 43 46 49 53 56 59 62 67 73 77 83 88 91 95 100 102 103 104 101 98 97 97 97 96 92 87 83 81 80 79 79 82 87 93 102 111 120 133 141 145 149 147 141 138 135 132 129 128 128 127 126 125 120 115 112 111 110 109 109 109 108 105
52 51 46 41 38 34 32 35 37 35 34 35 34 33 33 36 40 41 39 40 42 42 41 41 42 46 51 57 59 59 63 69 73 77 85 92 98 104 107 108 107 104 100 100 99 98 96 92 89 85 84 82 81 84 91 95 99 112 126 138 145 146 144 143 138 134 133 130 127 126 127 127 126 124 121 116 113 111 109 106 104 103 101 97 91
56 52 44 38 37 35 34 33 31 26 24 29 34 34 32 31 34 36 38 42 44 45 45 43 41 41 45 54 61 63 63 66 69 73 77 81 89 100 109 110 110 109 108 106 104 104 105 108 110 109 107 106 106 107 110 113 124 140 146 147 148 145 142 139 136 132 130 128 127 127 126 125 124 120 116 112 111 108 105 102 99 96 91 85 78
54 46 43 42 42 40 37 34 29 21 17 23 34 38 35 33 30 30 37 44 46 48 49 46 43 41 41 45 55 64 69 70 71 73 74 74 77 88 100 108 113 116 115 114 113 114 115 118 122 124 124 123 121 121 123 127 137 146 147 146 143 141 140 137 134 133 132 129 128 126 123 121 120 116 111 108 106 104 101 98 93 86 79 71 62
43 38 37 34 31 32 37 39 39 34 27 24 25 25 28 34 38 39 44 48 46 46 49 49 46 44 42 40 43 53 66 73 75 78 79 80 78 79 86 96 105 110 112 114 116 119 122 126 127 125 122 120 117 115 114 116 121 129 137 139 137 137 138 136 135 137 136 130 125 121 117 115 114 110 106 104 101 99 96 90 81 72 64 57 51
34 30 25 20 18 18 19 23 31 37 36 32 26 21 25 40 49 45 42 42 40 38 42 49 51 50 47 43 39 40 51 65 75 82 85 87 88 84 82 87 97 103 104 105 106 110 117 124 126 122 116 111 107 104 103 102 106 115 123 128 129 132 134 134 139 143 135 125 121 117 112 111 110 106 103 101 98 93 87 79 71 65 62 60 61